User: anonymous   Login
Location: Abraham Lincoln Continuation High School
(33.9711°N, 117.3662°W)
Time: 01:34:10
(UTC+00:00)
Language:

Cosmos 1025 Rocket - Orbit

View from above orbital plane
View from above orbital plane
View from above satellite
View from above satellite

Ground track
Ground track

The orbit data is extracted from the following two-line orbital elements,

1 10974U 78067B   20328.55644587 +.00000130 +00000-0 +11636-4 0  9993
2 10974 082.4844 060.1502 0018396 139.3719 220.8874 14.87370315273043
Epoch (UTC): 23 November 2020 13:21:16
Eccentricity: 0.0018396
inclination: 82.4844°
perigee height: 593 km
apogee height: 619 km
right ascension of ascending node: 60.1502°
argument of perigee: 139.3719°
revolutions per day: 14.87370315
mean anomaly at epoch: 220.8874°
orbit number at epoch: 27304

The dashed part of the orbit path shows where the satellite is in the earth's shadow,  

DLR